Location: Pinon Hills
(34.4429°N, 117.6403°W)
Time: 21:19:37
(UTC-08:00)

Amateur Radio Satellites - All Passes

Search period start: 27 February 2015 20:49
Search period end: 28 February 2015 20:49
Location: Pinon Hills, 34.4429°N, 117.6403°W

Satellite Date Start Highest point End Downlink Frequencies (MHz)
Time Altitude Azimuth
HUMSAT D 27 Feb 20:50:56 20:54:03 21° 71° (ENE) 20:57:16 437.325/437.525
CUTE 1.7 + AOD 2 27 Feb 20:55:33 20:58:43 20° 266° (W) 21:01:47 437.475
PCSat 27 Feb 21:01:57 21:07:21 78° 296° (WNW) 21:12:49 145.827
CUBEBUG 2 27 Feb 21:02:29 21:07:07 89° 253° (WSW) 21:11:36 437.445
PHONESAT 2.4 27 Feb 21:17:49 21:21:05 30° 357° (N) 21:24:21 2401.200-2431.200
Oscar 11 27 Feb 21:19:03 21:23:05 39° 262° (W) 21:27:06 145.826/435.025
50 SAT 27 Feb 21:21:20 21:24:53 32° 73° (ENE) 21:28:29 437.505
AISAT 27 Feb 21:25:37 21:29:51 42° 73° (ENE) 21:34:07 437.250
DOVE 4 27 Feb 21:26:29 21:29:58 17° 268° (W) 21:33:10 437.250
VELOX 1 27 Feb 21:36:35 21:40:57 55° 75° (ENE) 21:45:21 145.980
DX 1 27 Feb 21:37:17 21:41:34 50° 260° (W) 21:45:51 434.975-435.025
VERMONT LUNAR 27 Feb 21:37:33 21:40:43 31° 7° (N) 21:43:52 437.305
ESTCUBE 1 27 Feb 21:40:34 21:44:18 27° 71° (ENE) 21:48:10 437.505/2401.250
CUBEBUG 1 27 Feb 21:41:12 21:44:44 25° 71° (ENE) 21:48:24 437.445
DELFI C3 27 Feb 21:42:56 21:46:14 24° 265° (W) 21:49:30 145.870
DUCHIFAT 1 27 Feb 21:45:29 21:46:49 12° 91° (E) 21:48:24 145.980
FUNcube-1 27 Feb 21:57:09 22:01:06 30° 263° (W) 22:04:56 145.935
ZACube-1 27 Feb 21:57:12 22:01:09 30° 263° (W) 22:04:59 437.345
CINEMA 3 27 Feb 21:59:48 22:02:03 13° 269° (W) 22:03:59 145.822/145.860
UNISAT 6 27 Feb 21:59:51 22:03:48 36° 98° (E) 22:07:48 437.425
POLYITAN 1 27 Feb 22:00:27 22:03:26 19° 94° (E) 22:06:30 437.675
POPSAT HIP 1 27 Feb 22:02:36 22:05:39 20° 94° (E) 22:08:48 437.405
UWE-3 27 Feb 22:09:59 22:13:12 18° 267° (W) 22:16:13 435.000/436.395/437.385
UKube-1 27 Feb 22:12:06 22:15:29 21° 265° (W) 22:18:46 .
HUMSAT D 27 Feb 22:26:08 22:29:44 26° 264° (W) 22:33:13 437.325/437.525
TIGRISAT 27 Feb 22:26:19 22:30:35 75° 102° (ESE) 22:34:53 435.000
NANOSAT C BR1 27 Feb 22:26:22 22:30:18 38° 98° (E) 22:34:15 145.865
SPROUT 27 Feb 22:26:43 22:29:40 19° 70° (ENE) 22:32:46 437.525
GONETS M04 27 Feb 22:34:31 22:43:04 59° 281° (W) 22:51:36
RS-15 27 Feb 22:34:52 22:45:00 48° 111° (ESE) 22:55:20 29.354- 29.394
ANTELSAT 27 Feb 22:38:05 22:42:22 76° 284° (WNW) 22:46:42 437.575/2403.000
TISAT 1 27 Feb 22:41:33 22:45:01 25° 71° (ENE) 22:48:34 437.305
PCSat 27 Feb 22:50:30 22:51:48 11° 316° (NW) 22:52:47 145.827
PHONESAT 2.4 27 Feb 22:56:35 23:00:02 41° 13° (NNE) 23:03:28 2401.200-2431.200
50 SAT 27 Feb 22:57:38 23:00:02 15° 267° (W) 23:02:16 437.505
QB50P1 27 Feb 22:58:07 23:02:22 82° 285° (WNW) 23:06:34 145.935-145.965
QB50P2 27 Feb 23:00:50 23:05:04 74° 284° (WNW) 23:09:15 145.880/145.840
DANDE 27 Feb 23:03:57 23:09:38 25° 94° (E) 23:14:37 436.750
AISAT 27 Feb 23:04:05 23:06:43 15° 268° (W) 23:09:07 437.250
VERMONT LUNAR 27 Feb 23:15:26 23:18:55 84° 21° (NNE) 23:22:22 437.305
VELOX 1 27 Feb 23:16:33 23:17:56 11° 270° (W) 23:19:00 145.980
CUBEBUG 1 27 Feb 23:17:23 23:21:04 24° 265° (W) 23:24:41 437.445
ESTCUBE 1 27 Feb 23:17:33 23:21:11 23° 265° (W) 23:24:44 437.505/2401.250
DUCHIFAT 1 27 Feb 23:18:57 23:23:00 45° 286° (WNW) 23:26:59 145.980
BUGSAT 1 27 Feb 23:25:23 23:29:27 51° 285° (WNW) 23:33:25 437.445
POLYITAN 1 27 Feb 23:35:45 23:39:25 28° 288° (WNW) 23:42:58 437.675
UNISAT 6 27 Feb 23:37:40 23:40:22 16° 290° (WNW) 23:42:55 437.425
POPSAT HIP 1 27 Feb 23:37:58 23:41:34 27° 288° (WNW) 23:45:05 437.405
CUSAT 1 27 Feb 23:51:00 23:58:10 75° 98° (E) 00:03:39 437.405
SPROUT 28 Feb 00:01:41 00:05:35 31° 263° (W) 00:09:27 437.525
NANOSAT C BR1 28 Feb 00:03:29 00:05:53 15° 291° (WNW) 00:08:06 145.865
SWISSCUBE 28 Feb 00:03:34 00:07:50 34° 72° (ENE) 00:12:11 437.505
BEESAT 28 Feb 00:12:38 00:17:03 40° 73° (ENE) 00:21:31 436.000
TISAT 1 28 Feb 00:17:21 00:20:47 22° 265° (W) 00:24:08 437.305
Oscar 19 28 Feb 00:28:02 00:31:56 22° 94° (E) 00:35:59 437.125/150
PHONESAT 2.4 28 Feb 00:35:04 00:38:35 51° 209° (SSW) 00:42:04 2401.200-2431.200
ITUPSAT 1 28 Feb 00:37:37 00:42:22 74° 76° (ENE) 00:47:11 437.325
DANDE 28 Feb 00:45:40 00:52:58 48° 280° (W) 00:58:38 436.750
RS-15 28 Feb 00:47:09 00:57:29 44° 311° (NW) 01:07:49 29.354- 29.394
VERMONT LUNAR 28 Feb 00:54:15 00:56:33 17° 217° (SW) 00:58:47 437.305
Gurwin Techsat 1B 28 Feb 01:14:02 01:16:50 15° 91° (E) 01:19:55 435.225
KKS-1 28 Feb 01:14:11 01:18:09 32° 72° (ENE) 01:22:10 437.445
STARS 28 Feb 01:27:49 01:31:37 29° 71° (ENE) 01:35:28 437.465
SO-50 28 Feb 01:33:11 01:37:35 54° 116° (ESE) 01:42:12 436.795
CUSAT 1 28 Feb 01:37:51 01:41:10 14° 287° (WNW) 01:43:46 437.405
SWISSCUBE 28 Feb 01:42:15 01:45:48 20° 266° (W) 01:49:14 437.505
BEESAT 28 Feb 01:51:53 01:55:06 17° 267° (W) 01:58:09 436.000
ITAMSAT 1 28 Feb 01:57:52 02:03:02 58° 101° (E) 02:08:10 435.822/435.867
JUGNU 28 Feb 02:02:26 02:04:35 12° 166° (SSE) 02:06:52 437.505
Oscar 19 28 Feb 02:06:44 02:11:23 35° 289° (WNW) 02:15:58 437.125/150
YUBILEINY 28 Feb 02:40:56 02:49:05 41° 75° (ENE) 02:57:20 435.215
BEESAT 3 28 Feb 02:46:58 02:51:05 64° 59° (ENE) 02:55:06 437.485
AIST 2 28 Feb 02:50:23 02:53:44 22° 52° (NE) 02:57:07 435.215
KKS-1 28 Feb 02:51:36 02:54:53 19° 266° (W) 02:58:01 437.445
Gurwin Techsat 1B 28 Feb 02:52:02 02:57:14 56° 286° (WNW) 03:02:24 435.225
M-CUBED/EXP-1 PRIME 28 Feb 02:53:34 02:56:35 35° 70° (ENE) 02:59:41 437.505
AUBIESAT-1 28 Feb 02:58:05 03:01:06 35° 69° (ENE) 03:04:12 437.475
STARS 28 Feb 03:04:42 03:08:07 21° 266° (W) 03:11:25 437.465
JAS-2 28 Feb 03:07:34 03:13:14 24° 92° (E) 03:19:25 435.910
RS-15 28 Feb 03:08:40 03:14:03 14° 341° (NNW) 03:19:06 29.354- 29.394
BEESAT 2 28 Feb 03:09:07 03:13:16 83° 242° (WSW) 03:17:21 435.950
HORYU 2 28 Feb 03:10:41 03:15:05 63° 101° (E) 03:19:30 437.375
SO-50 28 Feb 03:15:34 03:18:33 16° 314° (NW) 03:21:27 436.795
AO-7 28 Feb 03:31:18 03:39:12 48° 100° (E) 03:47:08 29.400- 29.500
ITAMSAT 1 28 Feb 03:39:06 03:42:07 15° 294° (WNW) 03:44:51 435.822/435.867
MOZHAYETS 4 28 Feb 03:40:09 03:44:36 56° 75° (ENE) 03:49:05
SRMSAT 28 Feb 03:46:22 03:48:54 13° 167° (SSE) 03:51:32 437.500
JUGNU 28 Feb 03:48:55 03:52:56 19° 175° (S) 03:56:58 437.505
AIST 2 28 Feb 04:28:40 04:32:22 29° 248° (WSW) 04:35:56 435.215
YUBILEINY 28 Feb 04:37:54 04:45:52 38° 272° (W) 04:53:37 435.215
HORYU 2 28 Feb 04:50:22 04:51:18 10° 294° (WNW) 04:51:56 437.375
JAS-2 28 Feb 04:51:19 04:58:38 63° 286° (WNW) 05:06:19 435.910
Cubesat XI-IV 28 Feb 05:03:31 05:06:50 17° 92° (E) 05:10:25 437.490
CUTE-I 28 Feb 05:12:54 05:16:49 21° 93° (E) 05:20:55 437.470
MOZHAYETS 4 28 Feb 05:20:56 05:22:16 11° 271° (W) 05:23:17
AO-7 28 Feb 05:24:32 05:31:48 34° 296° (WNW) 05:38:54 29.400- 29.500
RS-15 28 Feb 05:28:18 05:33:23 14° 19° (NNE) 05:38:59 29.354- 29.394
CUBESAT XI-V 28 Feb 05:30:44 05:35:20 64° 76° (ENE) 05:40:01 437.345
SRMSAT 28 Feb 05:33:20 05:37:25 19° 176° (S) 05:41:30 437.500
JUGNU 28 Feb 05:37:18 05:41:18 18° 185° (S) 05:45:17 437.505
PRISM 28 Feb 05:51:26 05:55:30 61° 259° (W) 05:59:37 437.425
PCSat 28 Feb 05:53:40 05:58:43 39° 58° (ENE) 06:03:47 145.827
STRAND 1 28 Feb 06:05:17 06:10:25 89° 269° (W) 06:15:36 437.568
JAS-2 28 Feb 06:41:42 06:42:40 10° 300° (WNW) 06:43:02 435.910
Cubesat XI-IV 28 Feb 06:42:06 06:47:17 49° 287° (WNW) 06:52:25 437.490
CUTE-I 28 Feb 06:52:05 06:57:05 40° 288° (WNW) 07:02:01 437.470
AIST 1 28 Feb 07:03:51 07:08:09 73° 95° (E) 07:12:31
SRMSAT 28 Feb 07:22:00 07:25:56 18° 186° (S) 07:29:49 437.500
JUGNU 28 Feb 07:27:38 07:29:39 12° 195° (SSW) 07:31:33 437.505
PCSat 28 Feb 07:37:38 07:41:56 24° 252° (WSW) 07:46:04 145.827
RS-15 28 Feb 07:39:32 07:50:10 43° 49° (NE) 08:01:24 29.354- 29.394
HO-68 28 Feb 07:47:22 07:53:23 29° 96° (E) 07:59:33 435.675
DOVE 4 28 Feb 07:52:05 07:54:06 14° 90° (E) 07:56:20 437.250
AAUSAT CUBESAT 2 28 Feb 08:02:58 08:05:28 16° 92° (E) 08:08:08 437.432
COMPASS 1 28 Feb 08:03:01 08:05:54 19° 93° (E) 08:08:56 437.405
CINEMA 3 28 Feb 08:20:09 08:22:24 15° 92° (E) 08:24:51 145.822/145.860
BRITE-PL 28 Feb 08:21:31 08:26:07 81° 101° (ESE) 08:30:23 437.365/2234.400
O/OREOS (USA 219) 28 Feb 08:22:51 08:25:41 17° 101° (E) 08:28:43 437.305
CANX-2 28 Feb 08:24:07 08:28:18 57° 100° (E) 08:32:30 2200.000
SEEDS 28 Feb 08:25:24 08:29:25 43° 98° (E) 08:33:28 437.485
GOMX 1 28 Feb 08:40:15 08:44:41 86° 101° (E) 08:48:52 467.674
ISS 28 Feb 08:40:55 08:43:56 39° 133° (SE) 08:46:59 145.825
CUTE 1.7 + AOD 2 28 Feb 08:43:05 08:47:21 89° 87° (E) 08:51:37 437.475
GONETS M04 28 Feb 08:48:55 08:57:32 60° 80° (E) 09:06:12
POLYITAN 1 28 Feb 08:53:03 08:53:25 10° 67° (ENE) 08:54:04 437.675
POPSAT HIP 1 28 Feb 08:54:36 08:55:21 11° 67° (ENE) 08:56:20 437.405
UNISAT 6 28 Feb 08:56:09 08:59:31 22° 71° (ENE) 09:02:58 437.425
CUBEBUG 2 28 Feb 08:58:10 09:01:25 23° 95° (E) 09:04:46 437.445
Oscar 11 28 Feb 09:09:43 09:13:53 46° 99° (E) 09:18:03 145.826/435.025
SRMSAT 28 Feb 09:12:58 09:14:25 11° 195° (SSW) 09:15:45 437.500
NANOSAT C BR1 28 Feb 09:16:25 09:19:27 20° 70° (ENE) 09:22:37 145.865
TIGRISAT 28 Feb 09:21:42 09:25:54 42° 74° (ENE) 09:30:03 435.000
AISAT 28 Feb 09:23:10 09:23:48 10° 90° (E) 09:24:46 437.250
DELFI C3 28 Feb 09:25:35 09:29:37 57° 100° (E) 09:33:38 145.870
DOVE 4 28 Feb 09:28:13 09:32:11 37° 287° (WNW) 09:35:59 437.250
DX 1 28 Feb 09:29:27 09:33:26 35° 98° (E) 09:37:26 434.975-435.025
VELOX 1 28 Feb 09:32:37 09:34:48 14° 91° (E) 09:37:13 145.980
ANTELSAT 28 Feb 09:33:33 09:37:57 61° 75° (ENE) 09:42:16 437.575/2403.000
HO-68 28 Feb 09:34:30 09:41:17 46° 291° (WNW) 09:48:00 435.675
AAUSAT CUBESAT 2 28 Feb 09:37:27 09:41:14 33° 287° (WNW) 09:45:00 437.432
COMPASS 1 28 Feb 09:38:01 09:41:40 28° 287° (WNW) 09:45:16 437.405
QB50P1 28 Feb 09:47:22 09:51:28 46° 74° (ENE) 09:55:35 145.935-145.965
FUNcube-1 28 Feb 09:48:45 09:52:52 63° 101° (E) 09:57:00 145.935
ZACube-1 28 Feb 09:49:00 09:53:08 65° 101° (E) 09:57:16 437.345
QB50P2 28 Feb 09:50:11 09:54:20 51° 75° (ENE) 09:58:31 145.880/145.840
RS-15 28 Feb 09:51:50 10:02:57 54° 248° (WSW) 10:14:23 29.354- 29.394
CINEMA 3 28 Feb 09:56:02 09:59:50 33° 287° (WNW) 10:03:32 145.822/145.860
O/OREOS (USA 219) 28 Feb 10:00:38 10:04:51 36° 295° (WNW) 10:09:04 437.305
UWE-3 28 Feb 10:02:08 10:06:16 67° 284° (WNW) 10:10:23 435.000/436.395/437.385
UKube-1 28 Feb 10:02:09 10:06:32 84° 105° (ESE) 10:10:52 .
SEEDS 28 Feb 10:02:51 10:04:55 13° 291° (WNW) 10:06:48 437.485
CANX-2 28 Feb 10:03:07 10:03:50 10° 292° (WNW) 10:04:16 2200.000
DUCHIFAT 1 28 Feb 10:07:31 10:11:48 81° 77° (ENE) 10:16:06 145.980
SO-50 28 Feb 10:08:32 10:12:19 22° 49° (NE) 10:16:11 436.795
BUGSAT 1 28 Feb 10:11:31 10:15:45 67° 76° (ENE) 10:20:00 437.445
HUMSAT D 28 Feb 10:13:17 10:17:22 64° 100° (E) 10:21:27 437.325/437.525
ISS 28 Feb 10:18:11 10:20:31 18° 329° (NNW) 10:22:49 145.825
POLYITAN 1 28 Feb 10:24:39 10:28:55 60° 260° (W) 10:33:10 437.675
POPSAT HIP 1 28 Feb 10:26:34 10:30:49 58° 260° (W) 10:35:04 437.405
UNISAT 6 28 Feb 10:32:23 10:36:14 27° 264° (W) 10:39:56 437.425
CUBEBUG 2 28 Feb 10:34:48 10:38:06 22° 288° (WNW) 10:41:17 437.445
CUSAT 1 28 Feb 10:36:15 10:38:05 17° 76° (ENE) 10:40:00 437.405
50 SAT 28 Feb 10:37:52 10:41:50 89° 294° (WNW) 10:45:47 437.505
GONETS M04 28 Feb 10:47:02 10:53:51 25° 275° (W) 11:00:19
Oscar 11 28 Feb 10:47:38 10:49:43 13° 292° (WNW) 10:51:33 145.826/435.025
NANOSAT C BR1 28 Feb 10:51:23 10:55:10 29° 264° (W) 10:58:53 145.865
AISAT 28 Feb 10:56:30 11:00:52 56° 285° (WNW) 11:05:11 437.250
TIGRISAT 28 Feb 11:00:27 11:02:53 14° 268° (W) 11:05:04 435.000
DX 1 28 Feb 11:06:31 11:09:27 17° 291° (WNW) 11:12:14 434.975-435.025
VELOX 1 28 Feb 11:07:25 11:11:39 43° 286° (WNW) 11:15:49 145.980
CUBEBUG 1 28 Feb 11:09:05 11:13:31 81° 102° (ESE) 11:17:54 437.445
ESTCUBE 1 28 Feb 11:12:48 11:17:23 84° 284° (WNW) 11:21:55 437.505/2401.250
QB50P1 28 Feb 11:25:50 11:27:39 12° 269° (W) 11:29:13 145.935-145.965
QB50P2 28 Feb 11:29:22 11:30:37 11° 270° (W) 11:31:33 145.880/145.840
DANDE 28 Feb 11:33:33 11:36:10 52° 264° (W) 11:38:43 436.750
Oscar 19 28 Feb 11:41:39 11:45:37 24° 69° (ENE) 11:49:43 437.125/150
SO-50 28 Feb 11:48:25 11:53:05 42° 246° (WSW) 11:57:40 436.795
SPROUT 28 Feb 11:51:34 11:55:49 57° 100° (E) 12:00:01 437.525
TISAT 1 28 Feb 12:04:44 12:08:58 75° 101° (ESE) 12:13:10 437.305
SWISSCUBE 28 Feb 12:09:39 12:11:13 12° 90° (E) 12:13:06 437.505
BEESAT 28 Feb 12:18:09 12:20:25 14° 91° (E) 12:22:58 436.000
Gurwin Techsat 1B 28 Feb 12:31:45 12:35:06 18° 67° (ENE) 12:38:40 435.225
ITUPSAT 1 28 Feb 12:42:31 12:46:28 26° 95° (E) 12:50:29 437.325
ITAMSAT 1 28 Feb 13:12:14 13:17:21 62° 74° (ENE) 13:22:32 435.822/435.867
Oscar 19 28 Feb 13:20:08 13:24:49 34° 263° (W) 13:29:27 437.125/150
SPROUT 28 Feb 13:30:31 13:31:28 10° 293° (WNW) 13:32:10 437.525
SWISSCUBE 28 Feb 13:44:48 13:49:32 58° 286° (WNW) 13:54:15 437.505
BEESAT 28 Feb 13:53:58 13:58:37 50° 286° (WNW) 14:03:15 436.000
HORYU 2 28 Feb 14:05:48 14:09:51 36° 73° (ENE) 14:13:56 437.375
Gurwin Techsat 1B 28 Feb 14:09:35 14:14:44 50° 260° (W) 14:19:54 435.225
ITUPSAT 1 28 Feb 14:20:13 14:24:20 28° 290° (WNW) 14:28:22 437.325
AO-7 28 Feb 14:26:15 14:34:05 48° 67° (ENE) 14:42:00 29.400- 29.500
KKS-1 28 Feb 14:44:55 14:49:21 74° 284° (WNW) 14:53:45 437.445
ITAMSAT 1 28 Feb 14:54:53 14:57:22 13° 270° (W) 14:59:31 435.822/435.867
STARS 28 Feb 14:56:55 15:01:19 85° 287° (WNW) 15:05:42 437.465
JAS-2 28 Feb 15:00:54 15:05:45 37° 70° (ENE) 15:11:08 435.910
ISS 28 Feb 15:12:15 15:13:52 13° 28° (NNE) 15:15:33 145.825
YUBILEINY 28 Feb 15:36:59 15:45:17 53° 91° (E) 15:53:44 435.215
MOZHAYETS 4 28 Feb 15:39:56 15:43:01 18° 93° (E) 15:46:16
HORYU 2 28 Feb 15:43:48 15:46:41 16° 267° (W) 15:49:22 437.375
M-CUBED/EXP-1 PRIME 28 Feb 16:11:49 16:16:03 64° 105° (ESE) 16:20:37 437.505
AUBIESAT-1 28 Feb 16:15:50 16:20:04 63° 106° (ESE) 16:24:38 437.475
AO-7 28 Feb 16:19:40 16:27:05 33° 263° (W) 16:34:19 29.400- 29.500
Cubesat XI-IV 28 Feb 16:22:05 16:25:57 21° 68° (ENE) 16:30:00 437.490
CUTE-I 28 Feb 16:31:19 16:35:35 26° 69° (ENE) 16:40:00 437.470
BEESAT 3 28 Feb 16:37:48 16:41:16 28° 113° (ESE) 16:44:51 437.485
JAS-2 28 Feb 16:46:57 16:51:09 22° 269° (W) 16:55:27 435.910
ISS 28 Feb 16:47:25 16:50:39 72° 224° (SW) 16:53:53 145.825
AIST 2 28 Feb 16:48:08 16:48:45 10° 109° (ESE) 16:49:38 435.215
BEESAT 2 28 Feb 17:00:14 17:04:07 44° 115° (ESE) 17:08:06 435.950
MOZHAYETS 4 28 Feb 17:16:08 17:20:24 36° 287° (WNW) 17:24:36
AIST 1 28 Feb 17:16:40 17:18:38 13° 71° (ENE) 17:20:50
PHONESAT 2.4 28 Feb 17:23:39 17:26:30 22° 145° (SE) 17:29:24 2401.200-2431.200
CUBESAT XI-V 28 Feb 17:32:00 17:35:31 21° 93° (E) 17:39:09 437.345
YUBILEINY 28 Feb 17:35:07 17:42:33 29° 289° (WNW) 17:49:46 435.215
VERMONT LUNAR 28 Feb 17:35:32 17:38:58 57° 152° (SSE) 17:42:25 437.305
PRISM 28 Feb 17:38:14 17:41:38 24° 96° (E) 17:45:06 437.425
M-CUBED/EXP-1 PRIME 28 Feb 17:49:26 17:50:40 11° 296° (WNW) 17:51:39 437.505
AUBIESAT-1 28 Feb 17:53:16 17:54:37 11° 296° (WNW) 17:55:43 437.475
Cubesat XI-IV 28 Feb 18:00:43 18:05:47 42° 261° (W) 18:10:53 437.490
CUTE-I 28 Feb 18:10:40 18:15:32 34° 263° (W) 18:20:22 437.470
HO-68 28 Feb 18:14:39 18:18:23 16° 60° (ENE) 18:22:30 435.675
BEESAT 3 28 Feb 18:16:09 18:19:24 22° 308° (NW) 18:22:36 437.485
STRAND 1 28 Feb 18:19:43 18:24:34 41° 98° (E) 18:29:25 437.568
AIST 2 28 Feb 18:22:44 18:26:55 57° 301° (WNW) 18:31:09 435.215
O/OREOS (USA 219) 28 Feb 18:35:29 18:38:46 20° 60° (ENE) 18:42:10 437.305
BEESAT 2 28 Feb 18:40:01 18:42:34 15° 311° (NW) 18:45:02 435.950
AIST 1 28 Feb 18:52:25 18:56:37 42° 267° (W) 19:00:44
DOVE 4 28 Feb 18:54:24 18:56:45 14° 68° (ENE) 18:59:22 437.250
PHONESAT 2.4 28 Feb 19:01:07 19:04:45 71° 337° (NNW) 19:08:24 2401.200-2431.200
CUBESAT XI-V 28 Feb 19:08:50 19:13:02 31° 288° (WNW) 19:17:08 437.345
PRISM 28 Feb 19:13:40 19:17:04 23° 289° (WNW) 19:20:20 437.425
VERMONT LUNAR 28 Feb 19:13:43 19:17:00 37° 347° (NNW) 19:20:18 437.305
CANX-2 28 Feb 19:14:14 19:17:41 26° 72° (ENE) 19:21:14 2200.000
SEEDS 28 Feb 19:15:04 19:18:04 20° 71° (ENE) 19:21:11 437.485
CINEMA 3 28 Feb 19:19:37 19:21:16 12° 68° (ENE) 19:23:10 145.822/145.860
BRITE-PL 28 Feb 19:27:09 19:32:47 66° 76° (ENE) 19:38:18 437.365/2234.400
CUTE 1.7 + AOD 2 28 Feb 19:32:41 19:36:35 39° 74° (ENE) 19:40:32 437.475
GOMX 1 28 Feb 19:43:30 19:48:54 65° 76° (ENE) 19:54:08 467.674
CUBEBUG 2 28 Feb 19:54:08 19:56:35 15° 70° (ENE) 19:59:12 437.445
GONETS M04 28 Feb 19:56:25 19:58:00 11° 80° (E) 20:00:26
HO-68 28 Feb 19:58:10 20:05:19 87° 255° (WSW) 20:12:32 435.675
STRAND 1 28 Feb 19:59:45 20:03:31 20° 292° (WNW) 20:07:05 437.568
Oscar 11 28 Feb 20:01:40 20:05:03 24° 71° (ENE) 20:08:31 145.826/435.025
DELFI C3 28 Feb 20:10:55 20:13:59 22° 72° (ENE) 20:17:10 145.870
O/OREOS (USA 219) 28 Feb 20:14:10 20:18:20 34° 256° (WSW) 20:22:24 437.305
DX 1 28 Feb 20:22:21 20:25:32 20° 70° (ENE) 20:28:50 434.975-435.025
AAUSAT CUBESAT 2 28 Feb 20:24:27 20:28:35 81° 258° (WSW) 20:32:44 437.432
COMPASS 1 28 Feb 20:25:19 20:29:27 67° 259° (W) 20:33:35 437.405
DOVE 4 28 Feb 20:28:56 20:34:08 63° 259° (W) 20:39:09 437.250
PCSat 28 Feb 20:31:18 20:36:41 75° 115° (ESE) 20:42:08 145.827
PHONESAT 2.4 28 Feb 20:40:17 20:43:34 31° 355° (N) 20:46:51 2401.200-2431.200
FUNcube-1 28 Feb 20:41:18 20:45:13 32° 73° (ENE) 20:49:07 145.935
ZACube-1 28 Feb 20:41:42 20:45:40 33° 73° (ENE) 20:49:36 437.345
